NUUKSIO Weather Reports


Display with metric or nautical units.
time (UTC)temp
F
wind
direction
speed
MPH
gust
MPH
rain 1hr
in
rain 24hr
in
rain mn
in
humidity
%
barometer
mb
20260506090721 50 257 8.0 15.0 0.00 0.00 0.00 38 1013.1
20260506084721 51 275 9.0 15.0 0.00 0.00 0.00 32 1013.0
20260506082721 49 267 9.0 15.0 0.00 0.00 0.00 37 1013.0
20260506080721 48 276 8.0 17.0 0.00 0.00 0.00 37 1012.9
20260506072721 47 276 7.0 16.0 0.00 0.00 0.00 45 1012.7
20260506070721 46 283 6.0 13.0 0.00 0.00 0.00 50 1012.6
20260506060721 43 268 6.0 11.0 0.00 0.00 0.00 62 1012.2
20260506050720 38 265 5.0 10.0 0.00 0.00 0.00 78 1011.8
20260506044720 36 261 4.0 8.0 0.00 0.00 0.00 84 1011.6
20260506042720 35 263 5.0 10.0 0.00 0.00 0.00 90 1011.5
20260506040720 32 263 4.0 9.0 0.00 0.00 0.00 94 1011.4
20260506034720 31 248 3.0 8.0 0.00 0.00 0.00 97 1011.2
20260506032720 30 263 4.0 8.0 0.00 0.00 0.00 98 1011.0
20260506030720 29 269 5.0 9.0 0.00 0.00 0.00 97 1010.9
20260506024720 29 255 3.0 7.0 0.00 0.00 0.00 97 1010.7
20260506022720 29 264 4.0 8.0 0.00 0.00 0.00 97 1010.5
20260506020720 29 271 4.0 7.0 0.00 0.00 0.00 96 1010.3
20260506014720 29 254 4.0 6.0 0.00 0.00 0.00 96 1010.2
20260506012720 29 256 3.0 6.0 0.00 0.00 0.00 96 1010.1
20260506010720 29 265 4.0 7.0 0.00 0.00 0.00 95 1010.0
20260506004719 29 261 3.0 6.0 0.00 0.00 0.00 94 1009.8
20260506002719 30 266 4.0 7.0 0.00 0.00 0.00 92 1009.6
20260506000719 30 268 4.0 8.0 0.00 0.00 0.00 92 1009.6
20260505234720 31 265 4.0 8.0 0.00 0.00 0.00 90 1009.4
20260505232720 31 261 4.0 6.0 0.00 0.00 0.00 88 1009.3
20260505230719 32 268 4.0 8.0 0.00 0.00 0.00 86 1009.1
20260505224719 32 268 5.0 11.0 0.00 0.00 0.00 85 1009.0
20260505222719 33 272 4.0 8.0 0.00 0.00 0.00 82 1008.9
20260505220719 34 265 4.0 9.0 0.00 0.00 0.00 82 1008.8
20260505214719 34 262 6.0 12.0 0.00 0.01 0.00 82 1008.7
20260505212719 34 250 5.0 10.0 0.00 0.01 0.00 80 1008.5
20260505210719 34 254 4.0 9.0 0.00 0.01 0.00 78 1008.3
20260505204719 35 257 4.0 8.0 0.00 0.01 0.01 75 1008.0
20260505202719 36 256 4.0 9.0 0.00 0.01 0.01 73 1007.8
20260505200719 36 252 5.0 10.0 0.00 0.01 0.01 71 1007.6
20260505194718 37 248 5.0 10.0 0.00 0.01 0.01 69 1007.5
20260505192719 38 255 5.0 10.0 0.00 0.01 0.01 67 1007.4
20260505190718 39 248 6.0 11.0 0.00 0.01 0.01 65 1007.1
20260505184718 39 240 6.0 11.0 0.00 0.01 0.01 63 1006.9
20260505182718 41 242 6.0 13.0 0.00 0.01 0.01 60 1006.7
20260505180718 42 243 7.0 12.0 0.00 0.01 0.01 57 1006.4
20260505174718 43 239 6.0 12.0 0.00 0.01 0.01 54 1006.2
20260505172717 44 243 9.0 17.0 0.00 0.01 0.01 49 1006.0
20260505170718 45 233 9.0 17.0 0.00 0.01 0.01 52 1005.9
20260505164718 47 242 11.0 20.0 0.00 0.01 0.01 46 1005.8
20260505162718 47 229 9.0 20.0 0.00 0.01 0.01 47 1005.7
20260505160718 47 243 9.0 18.0 0.00 0.01 0.01 48 1005.6
20260505152718 50 239 11.0 21.0 0.00 0.01 0.01 41 1005.2
20260505150718 51 240 9.0 18.0 0.00 0.01 0.01 41 1005.1
20260505124717 53 238 6.0 11.0 0.00 0.01 0.01 42 1004.4
20260505122717 53 284 10.0 19.0 0.00 0.01 0.01 40 1004.4
20260505120717 54 247 9.0 19.0 0.00 0.01 0.01 45 1004.2
20260505114717 49 270 12.0 22.0 0.00 0.04 0.01 51 1004.2
20260505112717 54 277 11.0 20.0 0.00 0.04 0.01 44 1003.8
20260505110716 50 271 12.0 23.0 0.00 0.04 0.01 51 1003.7
20260505100717 53 257 11.0 23.0 0.00 0.11 0.01 49 1002.6
20260505094716 52 284 12.0 27.0 0.00 0.14 0.01 52 1002.4
20260505092716 53 265 11.0 25.0 0.00 0.14 0.01 48 1002.0